Location: Veytaux
(46.4185°N, 6.9320°E)
Time: 07:35:11
(UTC+00:00)

Lacrosse 5 - Pass Details

Date: 27 May 2022
Orbit: 714 x 724 km, 57.0° (Epoch: 09 March)

Event Time Altitude Azimuth Distance (km) Brightness Sun altitude
Exits shadow 01:46:10 22° 242° (WSW) 1,566 3.1 -15.6°
Maximum altitude 01:49:32 73° 324° (NW) 759 2.0 -15.3°
Drops below altitude 10° 01:54:38 10° 49° (NE) 2,217 5.7 -14.8°
Sets 01:57:02 0° 51° (NE) 3,139 6.7 -14.5°
